User: anonymous   Login
Location: Unspecified
(0.0000°N, 0.0000°E)
Time: 19:46:13
(UTC+00:00)
Language:

Cosmos 2499 - Orbit

View from above orbital plane
View from above orbital plane
View from above satellite
View from above satellite

Ground track
Ground track

The orbit data is extracted from the following two-line orbital elements,

1 39765U 14028E   17350.74304890 +.00000044 +00000-0 +11367-3 0  9995
2 39765 082.4385 188.5913 0230662 090.2560 272.4979 12.83341106167157
Epoch (UTC): 16 December 2017 17:49:59
Eccentricity: 0.0230662
inclination: 82.4385°
perigee height: 1150 km
apogee height: 1506 km
right ascension of ascending node: 188.5913°
argument of perigee: 90.2560°
revolutions per day: 12.83341106
mean anomaly at epoch: 272.4979°
orbit number at epoch: 16715

The dashed part of the orbit path shows where the satellite is in the earth's shadow,  

DLR